Location: Grust
(42.8833°N, 0.0333°W)
Time: 14:30:44
(UTC+00:00)

H-2A R/B - Pass Details

Date: 25 October 2020
Orbit: 577 x 656 km, 98.5° (Epoch: 24 November)

Event Time Altitude Azimuth Distance (km) Brightness Sun altitude
Rises 17:32:42 0° 6° (N) 2,852 5.3 -6.4°
Reaches altitude 10° 17:34:59 10° 359° (N) 1,934 4.5 -6.8°
Maximum altitude 17:38:53 39° 290° (WNW) 887 3.5 -7.5°
Drops below altitude 10° 17:42:42 10° 221° (SW) 1,892 5.4 -8.2°
Sets 17:44:55 0° 214° (SW) 2,781 6.1 -8.6°
